TimeEST,TemperatureF,Dew PointF,Humidity,Sea Level PressureIn,VisibilityMPH,Wind Direction,Wind SpeedMPH,Gust SpeedMPH,PrecipitationIn,Events,Conditions,WindDirDegrees,DateUTC
12:55 AM,9.1,-1.5,62,30.18,10.0,North,9.2,-,N/A,,Clear,350,2013-01-03 05:55:00
1:55 AM,5.5,-2.9,68,30.19,10.0,NNE,3.5,-,N/A,,Clear,30,2013-01-03 06:55:00
2:55 AM,5.9,-2.6,68,30.18,10.0,North,4.6,-,N/A,,Clear,10,2013-01-03 07:55:00
3:55 AM,0.1,-4.5,81,30.17,10.0,NE,5.8,-,N/A,,Clear,50,2013-01-03 08:55:00
4:55 AM,1.2,-3.8,79,30.17,10.0,Calm,Calm,-,N/A,,Clear,0,2013-01-03 09:55:00
5:55 AM,-3.3,-6.7,85,30.17,10.0,Calm,Calm,-,N/A,,Clear,0,2013-01-03 10:55:00
6:55 AM,-4.0,-7.8,84,30.18,10.0,North,3.5,-,N/A,,Clear,350,2013-01-03 11:55:00
7:55 AM,-4.7,-8.3,84,30.18,10.0,Calm,Calm,-,N/A,,Clear,0,2013-01-03 12:55:00
8:55 AM,-0.0,-4.9,80,30.18,10.0,Calm,Calm,-,N/A,,Clear,0,2013-01-03 13:55:00
9:55 AM,5.0,-5.1,63,30.18,10.0,Calm,Calm,-,N/A,,Clear,0,2013-01-03 14:55:00
10:55 AM,10.8,-5.8,47,30.17,10.0,Calm,Calm,-,N/A,,Clear,0,2013-01-03 15:55:00
11:55 AM,11.7,-6.0,45,30.13,10.0,Calm,Calm,-,N/A,,Partly Cloudy,0,2013-01-03 16:55:00
12:55 PM,14.9,-4.9,41,30.09,10.0,Calm,Calm,-,N/A,,Partly Cloudy,0,2013-01-03 17:55:00
1:55 PM,18.0,-1.1,43,30.08,10.0,Calm,Calm,-,N/A,,Clear,0,2013-01-03 18:55:00
2:55 PM,20.3,1.0,43,30.06,10.0,Calm,Calm,-,N/A,,Clear,0,2013-01-03 19:55:00
3:55 PM,21.0,2.7,45,30.06,10.0,Calm,Calm,-,N/A,,Clear,0,2013-01-03 20:55:00
4:55 PM,18.3,3.2,52,30.06,10.0,Calm,Calm,-,N/A,,Clear,0,2013-01-03 21:55:00
5:55 PM,12.7,4.6,70,30.06,10.0,Calm,Calm,-,N/A,,Partly Cloudy,0,2013-01-03 22:55:00
6:55 PM,12.9,7.5,79,30.06,10.0,Calm,Calm,-,N/A,,Overcast,0,2013-01-03 23:55:00
7:55 PM,14.2,8.6,78,30.06,10.0,Calm,Calm,-,N/A,,Overcast,0,2013-01-04 00:55:00
8:55 PM,15.4,9.3,77,30.06,10.0,Calm,Calm,-,N/A,,Overcast,0,2013-01-04 01:55:00
9:55 PM,16.2,10.0,77,30.04,10.0,Calm,Calm,-,N/A,,Overcast,0,2013-01-04 02:55:00
10:55 PM,18.9,10.4,70,30.03,10.0,Calm,Calm,-,N/A,,Overcast,0,2013-01-04 03:55:00
11:55 PM,17.1,9.9,73,30.01,10.0,Calm,Calm,-,N/A,,Overcast,0,2013-01-04 04:55:00